period_start,C,m1,H,J0,J1,J2,J3,J4,J5,JA,JB,JC,JD,JJ,JK,JN,#
2015-10-12 00:01:01,0.05,0.77,0.00,20.13,25.85,29.45,14.73,48.05,1016.81,2043.64,3332.99,3050.63,3320.97,599.79,601.71,12.59,0000 0000 0000 0000 000000
2015-10-12 00:06:02,0.04,0.77,0.00,20.15,25.85,29.45,14.77,48.13,1016.86,2043.55,3332.24,3050.00,3320.17,600.19,602.20,12.64,0000 0000 0000 0000 000000
2015-10-12 00:11:04,0.03,0.77,0.00,20.17,25.85,29.48,14.71,48.15,1016.75,2043.31,3331.12,3049.09,3319.12,599.89,601.76,12.69,0000 0000 0000 0000 000000
2015-10-12 00:16:05,0.04,0.77,0.00,20.19,25.86,29.43,14.79,48.22,1016.64,2043.40,3330.37,3048.29,3318.32,599.90,601.67,12.74,0000 0000 0000 0000 000000
2015-10-12 00:21:06,0.03,0.77,0.00,20.21,25.87,29.45,14.77,48.47,1016.62,2043.26,3329.52,3047.66,3317.48,600.07,601.68,12.79,0000 0000 0000 0000 000000
2015-10-12 00:26:08,0.02,0.78,0.00,20.22,25.87,29.42,14.75,48.47,1016.62,2043.06,3328.75,3047.01,3316.79,599.93,601.64,12.84,0000 0000 0000 0000 000000
2015-10-12 00:31:09,0.04,0.78,0.00,20.23,25.87,29.44,14.76,48.44,1016.62,2043.05,3327.98,3046.26,3316.04,599.70,601.28,12.89,0000 0000 0000 0000 000000
2015-10-12 00:36:10,0.03,0.78,0.00,20.24,25.87,29.44,14.78,48.33,1016.61,2043.06,3327.14,3045.93,3315.41,600.02,601.71,12.94,0000 0000 0000 0000 000000
2015-10-12 00:41:12,0.03,0.78,0.00,20.24,25.88,29.45,14.78,48.31,1016.62,2043.02,3326.77,3045.14,3314.96,600.02,601.69,12.99,0000 0000 0000 0000 000000
2015-10-12 00:46:13,0.02,0.78,0.00,20.25,25.90,29.47,14.75,48.29,1016.59,2043.04,3326.01,3044.94,3314.16,599.95,601.60,13.04,0000 0000 0000 0000 000000
2015-10-12 00:51:14,0.05,0.79,0.00,20.27,25.90,29.46,14.83,48.42,1016.57,2043.01,3325.17,3044.15,3313.43,600.06,601.62,13.09,0000 0000 0000 0000 000000
2015-10-12 00:56:15,0.04,0.79,0.00,20.27,25.90,29.50,14.72,48.33,1016.45,2043.01,3324.32,3043.56,3312.82,599.80,601.34,13.14,0000 0000 0000 0000 000000
2015-10-12 01:01:17,0.02,0.79,0.00,20.27,25.91,29.47,14.81,48.33,1016.37,2043.01,3323.75,3042.96,3312.06,599.97,601.36,13.19,0000 0000 0000 0000 000000
2015-10-12 01:06:18,0.05,0.79,0.00,20.29,25.92,29.49,14.73,48.36,1016.33,2043.00,3322.93,3042.11,3311.30,599.82,601.17,13.24,0000 0000 0000 0000 000000
2015-10-12 01:11:20,0.02,0.79,0.00,20.29,25.92,29.45,14.75,48.50,1016.40,2043.00,3322.09,3041.85,3310.82,599.91,601.28,13.29,0000 0000 0000 0000 000000
2015-10-12 01:16:21,0.04,0.80,0.00,20.29,25.93,29.47,14.72,48.48,1016.20,2043.00,3321.40,3041.06,3310.03,599.59,600.92,13.34,0000 0000 0000 0000 000000
2015-10-12 01:21:23,0.05,0.80,0.00,20.30,25.94,29.51,14.73,48.38,1016.12,2043.00,3320.49,3040.32,3309.22,599.90,601.18,13.39,0000 0000 0000 0000 000000
2015-10-12 01:26:24,0.02,0.80,0.00,20.29,25.95,29.52,14.77,48.32,1016.16,2043.00,3319.78,3039.93,3308.54,600.07,601.23,13.44,0000 0000 0000 0000 000000
2015-10-12 01:31:25,0.04,0.80,0.00,20.31,25.95,29.51,14.76,48.38,1016.25,2043.00,3318.97,3039.12,3307.74,600.03,601.25,13.49,0000 0000 0000 0000 000000
2015-10-12 01:36:26,0.04,0.80,0.00,20.32,25.96,29.51,14.77,48.17,1016.35,2042.99,3318.11,3038.53,3307.00,600.19,601.57,13.54,0000 0000 0000 0000 000000
2015-10-12 01:41:27,0.03,0.81,0.00,20.33,25.97,29.52,14.77,48.37,1016.33,2042.99,3317.30,3037.98,3306.17,600.11,601.32,13.59,0000 0000 0000 0000 000000
2015-10-12 01:46:29,0.04,0.81,0.00,20.34,25.97,29.55,14.80,48.28,1016.22,2042.99,3316.72,3037.30,3305.78,600.15,601.17,13.64,0000 0000 0000 0000 000000
2015-10-12 01:51:30,0.02,0.81,0.00,20.36,25.98,29.56,14.78,48.27,1016.21,2042.98,3315.94,3036.90,3305.03,599.93,601.10,13.69,0000 0000 0000 0000 000000
2015-10-12 01:56:31,0.05,0.81,0.00,20.37,25.99,29.55,14.81,48.17,1016.20,2042.99,3315.11,3036.12,3304.28,600.22,601.26,13.74,0000 0000 0000 0000 000000
2015-10-12 02:01:33,0.01,0.81,0.00,20.38,26.00,29.53,14.73,48.12,1016.19,2042.98,3314.48,3035.95,3303.92,599.80,601.00,13.79,0000 0000 0000 0000 000000
2015-10-12 02:06:34,0.05,0.82,0.00,20.39,26.00,29.56,14.73,48.29,1016.14,2042.97,3313.84,3035.15,3303.08,599.86,601.04,13.84,0000 0000 0000 0000 000000
2015-10-12 02:11:35,0.05,0.82,0.00,20.39,26.01,29.56,14.75,48.37,1016.13,2042.96,3312.92,3034.52,3302.33,600.06,601.05,13.90,0000 0000 0000 0000 000000
2015-10-12 02:16:37,0.03,0.82,0.00,20.40,26.02,29.55,14.77,48.24,1016.13,2042.98,3312.06,3033.90,3301.49,600.42,601.49,13.95,0000 0000 0000 0000 000000
2015-10-12 02:21:38,0.04,0.82,0.00,20.42,26.02,29.56,14.75,48.23,1016.13,2042.97,3311.32,3033.09,3300.88,599.66,600.73,14.00,0000 0000 0000 0000 000000
2015-10-12 02:26:39,0.05,0.82,0.00,20.42,26.04,29.56,14.74,48.15,1016.13,2042.93,3310.37,3032.40,3300.04,600.03,601.08,14.05,0000 0000 0000 0000 000000
2015-10-12 02:31:41,0.02,0.83,0.00,20.44,26.05,29.57,14.67,48.01,1016.13,2042.85,3309.58,3031.85,3299.20,599.79,600.74,14.10,0000 0000 0000 0000 000000
2015-10-12 02:36:42,0.04,0.83,0.00,20.44,26.05,29.58,14.79,48.12,1016.13,2042.74,3308.58,3031.00,3298.23,600.32,601.24,14.15,0000 0000 0000 0000 000000
2015-10-12 02:41:43,0.07,0.83,0.00,20.44,26.06,29.59,14.76,48.27,1016.06,2042.80,3307.65,3030.11,3297.36,599.98,600.75,14.20,0000 0000 0000 0000 000000
2015-10-12 02:46:45,0.06,0.83,0.00,20.44,26.07,29.59,14.76,48.27,1015.68,2042.58,3306.07,3028.72,3295.78,600.04,600.71,14.25,0000 0000 0000 0000 000000
2015-10-12 02:51:46,0.08,0.84,0.00,20.44,26.07,29.61,14.70,48.13,1015.64,2042.27,3304.30,3026.72,3293.67,599.78,600.34,14.30,0000 0000 0000 0000 000000
2015-10-12 02:56:47,0.26,0.85,0.00,20.44,26.08,29.62,14.75,48.54,1015.39,2042.30,3301.51,3022.28,3289.36,600.08,600.66,14.35,0000 0000 0000 0000 000000
2015-10-12 03:01:48,0.09,0.86,0.00,20.44,26.09,29.62,14.78,48.73,1015.13,2042.39,3299.98,3020.68,3287.80,599.67,599.88,14.40,0000 0000 0000 0000 000000
2015-10-12 03:06:50,0.07,0.86,0.00,20.44,26.10,29.66,14.72,48.73,1015.11,2042.15,3298.58,3019.27,3286.30,600.29,600.62,14.45,0000 0000 0000 0000 000000
2015-10-12 03:11:51,0.06,0.86,0.00,20.44,26.10,29.65,14.72,48.63,1015.15,2042.08,3297.32,3017.97,3284.86,600.14,600.43,14.50,0000 0000 0000 0000 000000
2015-10-12 03:16:52,0.12,0.87,0.00,20.45,26.10,29.69,14.76,48.45,1015.15,2042.04,3295.80,3016.16,3282.97,600.04,600.39,14.55,0000 0000 0000 0000 000000
2015-10-12 03:21:54,0.07,0.87,0.00,20.46,26.12,29.69,14.75,48.14,1015.17,2042.04,3294.55,3014.73,3281.55,600.33,600.71,14.60,0000 0000 0000 0000 000000
2015-10-12 03:26:55,0.07,0.88,0.00,20.45,26.12,29.72,14.80,48.31,1015.19,2042.01,3293.31,3013.52,3280.25,600.17,600.54,14.65,0000 0000 0000 0000 000000
2015-10-12 03:31:56,0.09,0.88,0.00,20.45,26.12,29.72,14.73,48.15,1015.45,2042.03,3291.93,3012.16,3278.59,599.72,600.27,14.70,0000 0000 0000 0000 000000
2015-10-12 03:36:57,0.07,0.88,0.00,20.44,26.12,29.72,14.79,48.15,1015.62,2042.01,3290.62,3010.84,3277.46,600.01,600.57,14.75,0000 0000 0000 0000 000000
2015-10-12 03:41:59,0.04,0.89,0.00,20.45,26.13,29.77,14.80,48.03,1015.64,2042.00,3289.60,3010.00,3276.38,600.01,600.74,14.80,0000 0000 0000 0000 000000
2015-10-12 03:47:00,0.05,0.89,0.00,20.47,26.15,29.77,14.80,47.87,1015.65,2042.00,3288.78,3009.17,3275.54,600.04,600.64,14.85,0000 0000 0000 0000 000000
2015-10-12 03:52:01,0.04,0.89,0.00,20.49,26.15,29.80,14.77,47.90,1015.69,2042.00,3287.92,3008.42,3274.81,599.97,600.56,14.90,0000 0000 0000 0000 000000
2015-10-12 03:57:03,0.03,0.89,0.00,20.50,26.15,29.74,14.74,47.83,1016.05,2042.00,3287.07,3007.99,3274.04,599.96,600.86,14.95,0000 0000 0000 0000 000000
2015-10-12 04:02:04,0.05,0.90,0.00,20.52,26.15,29.77,14.76,47.84,1016.15,2042.00,3286.38,3007.41,3273.36,600.01,600.81,15.00,0000 0000 0000 0000 000000
2015-10-12 04:07:06,0.02,0.90,0.00,20.54,26.17,29.76,14.76,47.77,1016.33,2042.00,3285.64,3006.98,3272.85,599.94,600.77,15.05,0000 0000 0000 0000 000000
2015-10-12 04:12:07,0.04,0.90,0.00,20.56,26.17,29.78,14.74,47.80,1016.57,2042.00,3284.98,3006.18,3272.05,600.01,600.96,15.10,0000 0000 0000 0000 000000
2015-10-12 04:17:08,0.03,0.90,0.00,20.58,26.17,29.75,14.72,47.77,1016.62,2042.00,3284.18,3005.93,3271.48,599.94,600.92,15.15,0000 0000 0000 0000 000000
2015-10-12 04:22:10,0.04,0.90,0.00,20.60,26.18,29.78,14.72,47.71,1016.62,2042.00,3283.42,3005.15,3270.88,599.75,600.63,15.20,0000 0000 0000 0000 000000
2015-10-12 04:27:11,0.03,0.91,0.00,20.63,26.20,29.79,14.76,47.67,1016.62,2042.00,3282.77,3004.74,3270.08,599.99,600.98,15.25,0000 0000 0000 0000 000000
2015-10-12 04:32:12,0.03,0.91,0.00,20.66,26.20,29.79,14.82,47.68,1016.62,2042.00,3282.05,3004.05,3269.75,600.21,600.96,15.30,0000 0000 0000 0000 000000
2015-10-12 04:37:13,0.04,0.91,0.00,20.70,26.21,29.75,14.78,47.67,1016.62,2041.99,3281.30,3003.63,3269.00,600.44,600.97,15.35,0000 0000 0000 0000 000000
2015-10-12 04:42:15,0.03,0.91,0.00,20.73,26.22,29.77,14.75,47.74,1016.62,2041.98,3280.64,3003.01,3268.19,599.98,600.61,15.40,0000 0000 0000 0000 000000
2015-10-12 04:47:16,0.04,0.91,0.00,20.76,26.24,29.76,14.68,47.55,1016.62,2041.97,3279.88,3002.34,3267.50,600.06,600.62,15.45,0000 0000 0000 0000 000000
2015-10-12 04:52:17,0.02,0.92,0.00,20.79,26.25,29.71,14.71,47.55,1016.61,2041.97,3279.09,3001.88,3266.91,600.06,600.56,15.50,0000 0000 0000 0000 000000
2015-10-12 04:57:18,0.04,0.92,0.00,20.79,26.26,29.69,14.70,47.60,1016.55,2041.94,3278.38,3001.07,3266.12,599.93,600.43,15.55,0000 0000 0000 0000 000000
2015-10-12 05:02:20,0.03,0.92,0.00,20.80,26.27,29.74,14.70,47.56,1016.25,2041.85,3277.69,3000.72,3265.58,599.91,600.18,15.60,0000 0000 0000 0000 000000
2015-10-12 05:07:21,0.01,0.92,0.00,20.84,26.30,29.76,14.66,47.55,1016.18,2041.72,3276.86,3000.01,3264.89,600.14,600.22,15.65,0000 0000 0000 0000 000000
2015-10-12 05:12:22,0.01,0.92,0.00,20.86,26.31,29.75,14.75,47.49,1016.15,2041.37,3276.02,2999.33,3264.07,600.15,600.22,15.70,0000 0000 0000 0000 000000
2015-10-12 05:17:23,0.03,0.92,0.00,20.89,26.32,29.78,14.78,47.63,1016.14,2041.18,3275.14,2998.69,3263.35,600.01,600.11,15.75,0000 0000 0000 0000 000000
2015-10-12 05:22:24,0.02,0.92,0.00,20.92,26.34,29.78,14.65,47.55,1016.13,2041.08,3274.29,2998.01,3262.78,599.90,599.86,15.80,0000 0000 0000 0000 000000
2015-10-12 05:27:26,0.05,0.93,0.00,20.96,26.35,29.77,14.76,47.61,1016.13,2041.04,3273.46,2997.22,3261.92,600.24,600.11,15.85,0000 0000 0000 0000 000000
2015-10-12 05:32:27,0.05,0.93,0.00,21.04,26.37,29.71,14.65,47.54,1016.08,2041.02,3272.47,2996.48,3261.08,599.78,599.48,15.90,0000 0000 0000 0000 000000
2015-10-12 05:37:28,0.04,0.93,0.00,21.28,26.40,29.62,14.76,47.58,1015.87,2041.00,3271.64,2995.77,3260.21,600.09,599.17,15.95,0000 0000 0000 0000 000000
2015-10-12 05:42:29,0.06,0.93,0.00,21.26,26.42,29.62,14.68,47.56,1015.68,2041.00,3270.55,2994.85,3259.34,600.06,599.00,16.00,0000 0000 0000 0000 000000
2015-10-12 05:47:31,0.05,0.94,0.00,21.24,26.45,29.65,14.66,47.58,1015.64,2040.99,3269.51,2993.93,3258.20,600.12,599.37,16.05,0000 0000 0000 0000 000000
2015-10-12 05:52:32,0.05,0.94,0.00,21.24,26.47,29.70,14.56,47.54,1015.62,2040.98,3268.28,2993.04,3257.11,599.68,598.58,16.10,0000 0000 0000 0000 000000
2015-10-12 05:57:33,0.05,0.94,0.00,21.23,26.50,29.74,14.72,47.56,1015.61,2040.93,3267.25,2992.15,3256.16,600.09,598.89,16.15,0000 0000 0000 0000 000000
2015-10-12 06:02:35,0.02,0.95,0.00,21.20,26.52,29.78,14.74,47.59,1015.64,2040.61,3266.23,2991.25,3255.14,600.61,599.72,16.20,0000 0000 0000 0000 000000
2015-10-12 06:07:36,0.03,0.95,0.00,21.16,26.54,29.83,14.63,47.50,1015.68,2040.25,3265.29,2990.49,3254.32,599.91,599.10,16.26,0000 0000 0000 0000 000000
2015-10-12 06:12:37,0.03,0.95,0.00,21.13,26.56,29.89,14.66,47.48,1016.05,2040.10,3264.29,2989.87,3253.49,599.82,599.27,16.31,0000 0000 0000 0000 000000
2015-10-12 06:17:39,0.05,0.95,0.00,21.12,26.57,29.94,14.63,47.38,1016.13,2040.06,3263.43,2989.06,3252.70,600.20,599.73,16.36,0000 0000 0000 0000 000000
2015-10-12 06:22:40,0.04,0.95,0.00,21.14,26.59,29.94,14.63,47.37,1016.16,2040.02,3262.62,2988.27,3251.94,599.74,599.27,16.41,0000 0000 0000 0000 000000
2015-10-12 06:27:41,0.04,0.95,0.00,21.17,26.60,29.99,14.64,47.32,1016.18,2040.01,3261.74,2987.72,3251.07,599.83,599.18,16.46,0000 0000 0000 0000 000000
2015-10-12 06:32:42,0.05,0.96,0.00,21.19,26.62,30.02,14.75,47.38,1016.25,2040.00,3260.71,2986.95,3250.24,599.96,599.46,16.51,0000 0000 0000 0000 000000
2015-10-12 06:37:43,0.06,0.96,0.00,21.19,26.64,30.04,14.60,47.33,1016.29,2040.01,3259.69,2986.04,3249.26,599.61,598.98,16.56,0000 0000 0000 0000 000000
2015-10-12 06:42:44,0.06,0.96,0.00,21.19,26.66,30.11,14.75,47.43,1016.28,2040.00,3258.65,2985.17,3248.37,600.26,599.75,16.61,0000 0000 0000 0000 000000
2015-10-12 06:47:46,0.06,0.97,0.00,21.22,26.67,30.15,14.73,47.54,1016.38,2040.00,3257.48,2984.31,3247.41,600.11,599.70,16.66,0000 0000 0000 0000 000000
2015-10-12 06:52:47,0.05,0.97,0.00,21.26,26.70,30.16,14.73,47.55,1016.47,2040.00,3256.48,2983.59,3246.51,600.26,599.76,16.71,0000 0000 0000 0000 000000
2015-10-12 06:57:48,0.05,0.97,0.00,21.27,26.71,30.15,14.67,47.45,1016.28,2039.99,3255.43,2982.65,3245.56,599.74,599.21,16.76,0000 0000 0000 0000 000000
2015-10-12 07:02:50,0.05,0.97,0.00,21.27,26.72,30.16,14.70,47.51,1016.22,2039.96,3254.29,2981.81,3244.57,600.14,599.41,16.81,0000 0000 0000 0000 000000
2015-10-12 07:07:51,0.04,0.98,0.00,21.29,26.75,30.20,14.74,47.60,1016.20,2039.84,3253.15,2980.90,3243.60,600.11,599.26,16.86,0000 0000 0000 0000 000000
2015-10-12 07:12:52,-0.00,0.98,0.00,21.30,26.76,30.17,14.70,47.59,1016.21,2039.36,3252.08,2980.03,3242.57,600.22,599.49,16.91,0000 0000 0000 0000 000000
2015-10-12 07:17:53,0.04,0.98,0.00,21.29,26.77,30.21,14.77,47.53,1016.18,2039.14,3251.11,2979.20,3241.72,600.20,599.47,16.96,0000 0000 0000 0000 000000
2015-10-12 07:22:55,0.05,0.98,0.00,21.31,26.80,30.20,14.63,47.27,1016.14,2039.03,3249.98,2978.32,3240.79,599.74,598.87,17.01,0000 0000 0000 0000 000000
2015-10-12 07:27:56,0.05,0.98,0.00,21.35,26.81,30.21,14.70,47.48,1016.14,2039.01,3248.89,2977.56,3239.90,600.19,599.42,17.06,0000 0000 0000 0000 000000
2015-10-12 07:32:57,0.06,0.99,0.00,21.36,26.82,30.27,14.72,47.53,1016.13,2039.00,3247.74,2976.71,3238.89,600.53,599.46,17.11,0000 0000 0000 0000 000000
2015-10-12 07:37:58,0.06,0.99,0.00,21.36,26.85,30.28,14.72,47.65,1015.92,2039.00,3246.46,2975.76,3237.89,600.35,599.16,17.16,0000 0000 0000 0000 000000
2015-10-12 07:42:59,0.05,0.99,0.00,21.38,26.86,30.30,14.66,47.75,1015.65,2039.00,3245.39,2974.84,3236.89,599.99,598.72,17.21,0000 0000 0000 0000 000000
2015-10-12 07:48:01,0.05,1.00,0.00,21.44,26.87,30.27,14.66,47.93,1015.61,2038.99,3244.30,2973.96,3235.95,599.86,598.55,17.26,0000 0000 0000 0000 000000
2015-10-12 07:53:02,0.06,1.00,0.00,21.70,26.89,30.09,14.58,47.77,1015.57,2038.98,3243.13,2972.93,3234.87,600.10,598.15,17.31,0000 0000 0000 0000 000000
2015-10-12 07:58:03,0.08,1.00,0.00,21.82,26.92,30.05,14.63,47.58,1015.58,2038.96,3241.76,2971.80,3233.54,600.05,597.77,17.36,0000 0000 0000 0000 000000
2015-10-12 08:03:04,0.03,1.01,0.00,21.70,26.94,30.12,14.64,47.68,1015.54,2038.79,3240.56,2970.78,3232.49,600.01,598.03,17.41,0000 0000 0000 0000 000000
2015-10-12 08:08:05,0.03,1.01,0.00,21.62,26.96,30.16,14.68,47.75,1015.61,2038.49,3239.42,2969.87,3231.50,599.82,598.04,17.46,0000 0000 0000 0000 000000
2015-10-12 08:13:07,0.03,1.01,0.00,21.57,26.97,30.20,14.64,47.50,1015.64,2038.11,3238.04,2968.85,3230.30,599.94,598.33,17.51,0000 0000 0000 0000 000000
2015-10-12 08:18:08,0.05,1.01,0.00,21.54,26.99,30.26,14.62,47.45,1015.64,2038.04,3236.86,2967.98,3229.31,599.90,598.29,17.56,0000 0000 0000 0000 000000
2015-10-12 08:23:09,0.06,1.02,0.00,21.54,27.00,30.30,14.68,47.41,1015.64,2038.01,3235.69,2967.09,3228.30,600.41,598.82,17.61,0000 0000 0000 0000 000000
2015-10-12 08:28:11,0.06,1.02,0.00,21.51,27.01,30.34,14.57,47.51,1015.65,2038.01,3234.53,2966.19,3227.32,599.69,598.31,17.66,0000 0000 0000 0000 000000
2015-10-12 08:33:12,0.06,1.02,0.00,21.47,27.02,30.39,14.71,47.58,1015.64,2038.00,3233.28,2965.26,3226.33,599.98,598.50,17.71,0000 0000 0000 0000 000000
2015-10-12 08:38:14,0.06,1.02,0.00,21.47,27.02,30.46,14.68,47.66,1015.64,2038.00,3231.98,2964.29,3225.29,600.37,598.85,17.76,0000 0000 0000 0000 000000
2015-10-12 08:43:15,0.06,1.03,0.00,21.47,27.04,30.51,14.68,47.53,1015.66,2038.00,3230.73,2963.32,3224.21,599.91,598.43,17.81,0000 0000 0000 0000 000000
2015-10-12 08:48:16,0.06,1.03,0.00,21.47,27.05,30.52,14.63,47.52,1015.73,2038.00,3229.50,2962.45,3223.26,600.17,598.83,17.86,0000 0000 0000 0000 000000
2015-10-12 08:53:17,0.06,1.03,0.00,21.46,27.05,30.49,14.65,47.41,1015.97,2038.00,3228.22,2961.50,3222.18,599.94,598.70,17.91,0000 0000 0000 0000 000000
2015-10-12 08:58:18,0.07,1.04,0.00,21.48,27.05,30.43,14.75,47.58,1016.09,2038.00,3226.85,2960.54,3221.13,600.32,599.13,17.96,0000 0000 0000 0000 000000
2015-10-12 09:03:20,0.06,1.04,0.00,21.78,27.06,30.26,14.66,47.38,1016.08,2037.99,3225.58,2959.60,3220.03,600.28,598.47,18.01,0000 0000 0000 0000 000000
2015-10-12 09:08:21,0.06,1.04,0.00,21.79,27.07,30.24,14.67,47.32,1016.10,2037.99,3224.30,2958.55,3218.95,600.33,598.44,18.06,0000 0000 0000 0000 000000
2015-10-12 09:13:22,0.08,1.05,0.00,21.67,27.10,30.27,14.63,47.43,1016.12,2037.97,3222.74,2957.39,3217.70,599.75,598.21,18.11,0000 0000 0000 0000 000000
2015-10-12 09:18:24,0.06,1.05,0.00,21.64,27.10,30.30,14.59,47.46,1016.12,2037.94,3221.36,2956.38,3216.54,599.74,598.09,18.16,0000 0000 0000 0000 000000
2015-10-12 09:23:25,0.08,1.06,0.00,21.60,27.10,30.36,14.63,47.51,1016.10,2037.93,3219.79,2955.38,3215.44,599.75,598.18,18.21,0000 0000 0000 0000 000000
2015-10-12 09:28:26,0.06,1.06,0.00,21.55,27.11,30.42,14.65,47.49,1016.04,2037.90,3218.42,2954.23,3214.23,600.04,598.57,18.26,0000 0000 0000 0000 000000
2015-10-12 09:33:28,0.06,1.06,0.00,21.54,27.12,30.50,14.66,47.63,1015.97,2037.86,3216.89,2953.19,3213.01,600.11,598.75,18.31,0000 0000 0000 0000 000000
2015-10-12 09:38:29,0.05,1.07,0.00,21.53,27.12,30.57,14.63,47.52,1015.80,2037.52,3215.37,2952.00,3211.75,600.08,598.62,18.36,0000 0000 0000 0000 000000
2015-10-12 09:43:31,0.07,1.07,0.00,21.49,27.12,30.64,14.73,47.48,1015.69,2037.30,3213.81,2950.89,3210.52,600.26,598.77,18.41,0000 0000 0000 0000 000000
2015-10-12 09:48:32,0.07,1.07,0.00,21.49,27.12,30.67,14.68,47.52,1015.73,2037.35,3212.41,2949.81,3209.34,600.06,598.54,18.46,0000 0000 0000 0000 000000
2015-10-12 09:53:33,0.08,1.08,0.00,21.49,27.12,30.64,14.77,47.65,1015.71,2037.28,3210.83,2948.62,3208.00,600.31,598.79,18.51,0000 0000 0000 0000 000000
2015-10-12 09:58:35,0.08,1.08,0.00,21.48,27.12,30.69,14.68,47.52,1015.69,2037.33,3209.21,2947.48,3206.68,599.78,598.36,18.56,0000 0000 0000 0000 000000
2015-10-12 10:03:36,0.07,1.09,0.00,21.49,27.12,30.64,14.73,47.62,1015.67,2037.20,3207.56,2946.24,3205.37,600.35,598.90,18.61,0000 0000 0000 0000 000000
2015-10-12 10:08:38,0.10,1.09,0.00,21.79,27.13,30.37,14.72,47.54,1015.65,2037.21,3205.83,2944.94,3203.93,600.71,598.54,18.66,0000 0000 0000 0000 000000
2015-10-12 10:13:39,0.09,1.09,0.00,21.84,27.15,30.32,14.63,47.44,1015.66,2037.21,3204.11,2943.69,3202.51,600.11,597.86,18.71,0000 0000 0000 0000 000000
2015-10-12 10:18:41,0.07,1.10,0.00,21.70,27.15,30.35,14.62,47.46,1015.66,2037.09,3202.29,2942.38,3200.98,600.01,598.15,18.76,0000 0000 0000 0000 000000
2015-10-12 10:23:42,0.10,1.10,0.00,21.65,27.15,30.42,14.60,47.52,1015.70,2037.03,3200.39,2940.85,3199.42,599.83,598.08,18.81,0000 0000 0000 0000 000000
2015-10-12 10:28:43,0.09,1.11,0.00,21.61,27.15,30.44,14.72,47.69,1015.68,2037.01,3198.51,2939.43,3197.84,599.92,598.21,18.86,0000 0000 0000 0000 000000
2015-10-12 10:33:45,0.10,1.11,0.00,21.56,27.16,30.49,14.77,47.68,1015.66,2037.00,3196.56,2937.84,3196.25,600.16,598.54,18.91,0000 0000 0000 0000 000000
2015-10-12 10:38:46,0.10,1.12,0.00,21.54,27.17,30.55,14.64,47.66,1015.66,2037.00,3194.62,2936.37,3194.55,599.99,598.32,18.96,0000 0000 0000 0000 000000
2015-10-12 10:43:47,0.11,1.12,0.00,21.52,27.17,30.61,14.72,47.58,1015.65,2037.00,3192.75,2934.80,3192.91,600.10,598.53,19.01,0000 0000 0000 0000 000000
2015-10-12 10:48:48,0.09,1.13,0.00,21.53,27.17,30.68,14.75,47.66,1015.67,2037.01,3190.82,2933.27,3191.28,599.93,598.34,19.06,0000 0000 0000 0000 000000
2015-10-12 10:53:49,0.09,1.13,0.00,21.50,27.16,30.70,14.70,47.63,1015.67,2037.01,3189.04,2931.88,3189.72,599.83,598.44,19.11,0000 0000 0000 0000 000000
2015-10-12 10:58:50,0.08,1.14,0.00,21.49,27.16,30.74,14.69,47.77,1015.65,2037.01,3187.49,2930.69,3188.49,599.96,598.51,19.16,0000 0000 0000 0000 000000
2015-10-12 11:03:52,0.11,1.14,0.00,21.48,27.16,30.72,14.71,47.63,1015.64,2037.01,3185.52,2929.16,3186.74,599.99,598.46,19.21,0000 0000 0000 0000 000000
2015-10-12 11:08:53,0.09,1.15,0.00,21.60,27.15,30.60,14.66,47.66,1015.64,2037.01,3183.70,2927.68,3185.17,600.08,598.44,19.26,0000 0000 0000 0000 000000
2015-10-12 11:13:55,0.08,1.15,0.00,21.90,27.17,30.37,14.46,47.37,1015.64,2037.01,3181.99,2926.43,3183.82,599.36,597.07,19.31,0000 0000 0000 0000 000000
2015-10-12 11:18:56,0.08,1.16,0.00,21.80,27.17,30.34,14.56,47.42,1015.60,2037.02,3180.44,2925.16,3182.51,599.76,597.62,19.36,0000 0000 0000 0000 000000
2015-10-12 11:23:58,0.11,1.16,0.00,21.71,27.17,30.38,14.68,47.46,1015.26,2037.01,3178.63,2923.74,3180.98,600.24,598.07,19.41,0000 0000 0000 0000 000000
2015-10-12 11:28:59,0.14,1.17,0.00,21.64,27.18,30.43,14.61,47.48,1015.16,2037.00,3176.23,2921.55,3178.66,599.84,597.78,19.47,0000 0000 0000 0000 000000
2015-10-12 11:34:00,0.14,1.18,0.00,21.58,27.18,30.47,14.70,47.67,1015.24,2037.00,3173.72,2919.31,3176.33,600.23,598.37,19.52,0000 0000 0000 0000 000000
2015-10-12 11:39:01,0.12,1.18,0.00,21.56,27.19,30.51,14.60,47.72,1015.33,2037.00,3171.67,2917.60,3174.52,599.68,597.86,19.56,0000 0000 0000 0000 000000
2015-10-12 11:44:02,0.12,1.19,0.00,21.54,27.19,30.56,14.58,47.67,1015.20,2037.00,3169.61,2915.81,3172.63,599.47,597.63,19.61,0000 0000 0000 0000 000000
2015-10-12 11:49:04,0.10,1.19,0.00,21.52,27.18,30.65,14.59,47.73,1015.17,2037.00,3167.71,2914.30,3170.89,599.98,598.16,19.67,0000 0000 0000 0000 000000
2015-10-12 11:54:05,0.10,1.20,0.00,21.50,27.18,30.69,14.73,47.71,1015.16,2037.00,3165.83,2912.81,3169.29,600.39,598.62,19.72,0000 0000 0000 0000 000000
2015-10-12 11:59:06,0.10,1.20,0.00,21.49,27.17,30.73,14.68,47.69,1015.15,2037.00,3163.84,2911.26,3167.63,600.03,598.32,19.77,0000 0000 0000 0000 000000
2015-10-12 12:04:08,0.09,1.21,0.00,21.49,27.17,30.72,14.69,47.73,1015.15,2037.00,3162.09,2909.77,3166.12,600.24,598.51,19.82,0000 0000 0000 0000 000000
2015-10-12 12:09:09,0.09,1.21,0.00,21.47,27.17,30.75,14.71,47.79,1015.15,2037.00,3160.39,2908.54,3164.70,600.01,598.24,19.87,0000 0000 0000 0000 000000
2015-10-12 12:14:10,0.07,1.22,0.00,21.46,27.17,30.74,14.67,47.81,1015.17,2037.00,3158.72,2907.34,3163.46,600.02,598.33,19.92,0000 0000 0000 0000 000000
2015-10-12 12:19:11,0.07,1.22,0.00,21.47,27.17,30.75,14.64,47.83,1015.17,2037.00,3157.14,2906.19,3162.23,599.61,597.98,19.97,0000 0000 0000 0000 000000
2015-10-12 12:24:13,0.08,1.23,0.00,21.51,27.17,30.65,14.72,47.73,1015.16,2037.00,3155.52,2905.00,3160.86,600.33,598.47,20.02,0000 0000 0000 0000 000000
2015-10-12 12:29:14,0.08,1.23,0.00,21.82,27.17,30.39,14.69,47.66,1015.17,2037.00,3153.95,2903.81,3159.65,600.16,597.73,20.07,0000 0000 0000 0000 000000
2015-10-12 12:34:15,0.08,1.24,0.00,21.80,27.19,30.37,14.56,47.43,1015.15,2037.00,3152.39,2902.69,3158.37,599.54,597.09,20.12,0000 0000 0000 0000 000000
2015-10-12 12:39:16,0.08,1.24,0.00,21.68,27.20,30.40,14.70,47.51,1015.15,2037.00,3150.68,2901.45,3157.02,600.40,598.23,20.17,0000 0000 0000 0000 000000
2015-10-12 12:44:18,0.08,1.24,0.00,21.63,27.20,30.42,14.65,47.61,1015.15,2036.99,3149.02,2900.26,3155.75,600.11,598.08,20.22,0000 0000 0000 0000 000000
2015-10-12 12:49:19,0.08,1.25,0.00,21.57,27.20,30.51,14.62,47.62,1015.15,2036.98,3147.42,2899.08,3154.45,599.77,597.86,20.27,0000 0000 0000 0000 000000
2015-10-12 12:54:20,0.09,1.25,0.00,21.53,27.20,30.59,14.68,47.55,1015.14,2036.99,3145.72,2897.82,3153.11,600.09,598.26,20.32,0000 0000 0000 0000 000000